This demonstration page uses our WeatherBlox Daily Observations layout. Learn more.

Left ArrowRight Arrow

40.92945, -100.16068

Hourly Observations for April 17, 2015

Temp ( °F °C ) Dew Point ( °F °C ) Humidity (%) Winds ( mph kmh ) Pressure ( in mb ) Visibility ( mi km ) Precip ( " mm )
12:15 am 00:15 Clear 54 12.1 52 11.1 94 94 NNE 7 11 30.03 1017 7 11 N/A
12:35 am 00:35 Clear 54 12 52 11 94 94 NE 5 7 30.03 1017 7 11 N/A
12:55 am 00:55 Clear 53 11.8 51 10.8 94 94 NNE 5 7 30.03 1017 7 11 N/A
1:15 am 01:15 Partly Cloudy with Mist and Fog 53 11.5 51 10.6 94 94 ENE 5 7 30.06 1018 5 8 N/A
1:35 am 01:35 Cloudy with Mist and Fog 54 12.1 52 11.3 95 95 E 5 7 30.06 1018 5 8 N/A
1:55 am 01:55 Cloudy with Mist and Fog 54 12.1 52 11.3 95 95 ENE 5 7 30.06 1018 5 8 N/A
2:15 am 02:15 Cloudy with Light Rain 54 12.2 53 11.5 96 96 ENE 5 7 30.06 1018 5 8 N/A
2:35 am 02:35 Cloudy with Light Rain 54 12.3 53 11.5 95 95 ENE 5 7 30.06 1018 5 8 N/A
2:55 am 02:55 Cloudy with Light Rain 55 12.5 53 11.6 94 94 N N/A 30.06 1018 5 8 N/A
3:15 am 03:15 Cloudy with Light Rain 55 12.5 53 11.5 94 94 N N/A 30.06 1018 5 8 0.02 0.51
3:35 am 03:35 Partly Cloudy with Rain 54 12.3 53 11.5 95 95 N N/A 30.06 1018 5 8 0.04 1.02
3:55 am 03:55 Mostly Cloudy with Rain 54 12.1 52 11.2 94 94 N N/A 30.06 1018 4 6 0.06 1.52
4:15 am 04:15 Cloudy with Heavy Rain 54 12 52 11.2 95 95 N 3 6 30.06 1018 3 4 0.06 1.52
4:35 am 04:35 Cloudy with Heavy Rain 54 12.1 52 11.3 95 95 NNE 3 6 30.06 1018 2 3 0.12 3.05
4:55 am 04:55 Cloudy with Rain 54 12 53 11.4 96 96 N N/A 30.06 1018 2 3 0.19 4.83
5:15 am 05:15 Cloudy with Rain 54 12.1 53 11.5 96 96 NE 7 11 30.06 1018 3 4 0.09 2.29
5:35 am 05:35 Cloudy with Rain 54 12 52 11.3 96 96 NE 8 13 30.03 1017 3 5 0.11 2.79
5:55 am 05:55 Cloudy with Mist and Fog 54 12.1 53 11.5 96 96 NE 8 13 30.03 1017 4 6 0.11 2.79
6:15 am 06:15 Cloudy with Mist and Fog 54 12.1 53 11.5 96 96 NE 9 15 30.03 1017 5 8 N/A
6:35 am 06:35 Cloudy with Mist and Fog 54 12.1 53 11.4 96 96 ENE 9 15 30.06 1018 5 8 N/A
6:55 am 06:55 Cloudy with Light Rain 54 12.1 52 11.3 95 95 ENE 13 20 30.06 1018 4 6 N/A
7:15 am 07:15 Cloudy with Light Rain 54 12.2 53 11.4 95 95 ENE 6 9 30.06 1018 3 5 0.02 0.51
7:35 am 07:35 Cloudy 54 12.1 53 11.5 96 96 NE 12 19 30.06 1018 2 3 0.02 0.51
7:55 am 07:55 Cloudy with Mist and Fog 54 12.2 53 11.5 96 96 ENE 9 15 30.06 1018 2 3 0.02 0.51
8:15 am 08:15 Cloudy with Mist and Fog 54 12.2 53 11.5 96 96 NE 12 19 30.03 1017 2 3 N/A
8:35 am 08:35 Cloudy with Mist and Fog 55 12.5 53 11.8 96 96 ENE 15 24 30.03 1017 2 2 N/A
8:55 am 08:55 Cloudy with Mist and Fog 55 12.8 54 12.1 96 96 ENE 16 26 30.03 1017 2 2 N/A
9:15 am 09:15 Cloudy with Mist and Fog 56 13.2 55 12.5 96 96 ENE 13 20 30.03 1017 3 4 N/A
9:35 am 09:35 Mostly Cloudy with Mist and Fog 57 13.8 55 13 95 95 ENE 9 15 30.00 1016 4 6 N/A
9:55 am 09:55 Cloudy with Mist and Fog 56 13.5 55 12.6 94 94 E 10 17 30.00 1016 5 8 N/A
10:15 am 10:15 Cloudy with Mist and Fog 56 13.6 55 12.6 94 94 E 12 19 30.03 1017 5 8 N/A
10:35 am 10:35 Cloudy 56 13.6 55 12.5 93 93 E 14 22 30.03 1017 7 11 N/A
10:55 am 10:55 Cloudy with Mist and Fog 57 13.9 55 12.9 94 94 E 14 22 30.00 1016 5 8 N/A
11:15 am 11:15 Cloudy with Mist and Fog 58 14.3 56 13.1 93 93 E 13 20 30.03 1017 5 8 N/A
11:35 am 11:35 Cloudy 57 14.1 55 12.7 91 91 E 15 24 30.03 1017 7 11 N/A
11:55 am 11:55 Cloudy 58 14.2 55 12.8 91 91 E 13 20 30.03 1017 7 11 N/A
12:15 pm 12:15 Cloudy with Mist and Fog 58 14.3 55 13 92 92 E 13 20 30.03 1017 5 8 N/A
12:35 pm 12:35 Cloudy with Light Rain 57 14 55 12.7 92 92 E 9 15 30.00 1016 3 5 N/A
12:55 pm 12:55 Cloudy with Mist and Fog 58 14.5 56 13.5 94 94 E 10 17 30.00 1016 3 5 0.01 0.25
1:15 pm 13:15 Cloudy with Rain 58 14.5 56 13.5 94 94 E 9 15 30.00 1016 3 5 0.01 0.25
1:35 pm 13:35 Cloudy with Mist and Fog 59 14.9 57 13.8 93 93 ESE 8 13 30.00 1016 4 6 0.01 0.25
1:55 pm 13:55 Cloudy with Mist and Fog 60 15.4 58 14.4 94 94 ESE 9 15 30.00 1016 3 5 0.01 0.25
2:15 pm 14:15 Cloudy with Mist and Fog 59 15.2 57 14 93 93 E 12 19 30.00 1016 4 6 N/A
2:35 pm 14:35 Cloudy with Mist and Fog 60 15.6 58 14.5 93 93 ESE 9 15 30.00 1016 4 6 N/A
2:55 pm 14:55 Cloudy with Mist and Fog 61 16 58 14.4 90 90 ESE 9 15 30.00 1016 5 8 N/A
3:15 pm 15:15 Cloudy with Mist and Fog 62 16.5 58 14.6 89 89 ESE 9 15 29.97 1015 5 8 N/A
3:35 pm 15:35 Cloudy 63 17.1 59 14.8 86 86 E 10 17 29.97 1015 7 11 N/A
3:55 pm 15:55 Partly Cloudy 63 17.3 58 14.6 84 84 E 12 19 29.97 1015 7 11 N/A
4:15 pm 16:15 Mostly Cloudy 64 17.7 58 14.3 81 81 ESE 8 13 29.94 1014 10 16 N/A
4:35 pm 16:35 Cloudy 63 17.2 58 14.3 83 83 E 14 22 29.94 1014 10 16 N/A
4:55 pm 16:55 Cloudy 63 17.3 58 14.2 82 82 E 12 19 29.94 1014 10 16 N/A
5:15 pm 17:15 Cloudy with Nearby Thunderstorms 64 18 58 14.6 81 81 E 13 20 29.91 1013 10 16 N/A
5:35 pm 17:35 Partly Cloudy 63 17.1 57 14.1 83 83 E 13 20 29.94 1014 10 16 N/A
5:55 pm 17:55 Partly Cloudy 65 18.3 59 14.9 81 81 E 12 19 29.91 1013 10 16 N/A
6:15 pm 18:15 Mostly Cloudy 65 18.1 58 14.7 81 81 E 16 26 29.91 1013 10 16 N/A
6:35 pm 18:35 Partly Cloudy 64 17.7 57 14 79 79 E 13 20 29.91 1013 10 16 N/A
6:55 pm 18:55 Partly Cloudy 62 16.6 56 13.2 80 80 E 15 24 29.91 1013 10 16 N/A
7:15 pm 19:15 Sunny 63 17 57 14.1 83 83 E 13 20 29.91 1013 10 16 N/A
7:35 pm 19:35 Sunny 62 16.8 58 14.6 87 87 E 10 17 29.91 1013 10 16 N/A
7:55 pm 19:55 Partly Cloudy 62 16.4 57 13.7 84 84 E 12 19 29.94 1014 10 16 N/A
8:15 pm 20:15 Sunny 60 15.6 56 13.4 87 87 E 10 17 29.94 1014 10 16 N/A
8:35 pm 20:35 Clear 60 15.3 56 13.2 87 87 E 10 17 29.94 1014 10 16 N/A
8:55 pm 20:55 Partly Cloudy 59 15 56 13.2 89 89 E 10 17 29.94 1014 10 16 N/A
9:15 pm 21:15 Partly Cloudy 58 14.7 56 13.1 90 90 E 10 17 29.94 1014 10 16 N/A
9:35 pm 21:35 Clear 58 14.5 55 13 91 91 E 12 19 29.97 1015 10 16 N/A
9:55 pm 21:55 Partly Cloudy 57 14 55 12.8 93 93 ENE 10 17 29.97 1015 7 11 N/A
10:15 pm 22:15 Mostly Cloudy 58 14.3 56 13.2 93 93 ENE 10 17 29.97 1015 7 11 N/A
10:35 pm 22:35 Cloudy 58 14.5 56 13.3 93 93 E 10 17 29.97 1015 7 11 N/A
10:55 pm 22:55 Cloudy 58 14.3 56 13.1 93 93 ENE 10 17 29.97 1015 7 11 N/A
11:15 pm 23:15 Mostly Cloudy 58 14.3 56 13.1 93 93 ENE 10 17 29.97 1015 7 11 N/A
11:35 pm 23:35 Cloudy 58 14.2 55 13 93 93 ENE 9 15 29.94 1014 7 11 N/A
11:55 pm 23:55 Cloudy 58 14.3 55 13 92 92 ENE 10 17 29.94 1014 7 11 N/A

Powered by AerisWeather